| time (UTC) | temp C | wind direction | speed KPH | gust KPH | rain 1hr cm | rain 24hr cm | rain mn cm | humidity % | barometer mb |
| 20260504140955 | 22 | 273 | 1.6 | 11.3 | 0.00 | 0.00 | 0.00 | 35 | 1012.8 |
| 20260504110513 | 21 | 182 | 0.0 | 6.4 | 0.00 | 0.00 | 0.00 | 36 | 1014.0 |
| 20260504100454 | 20 | 237 | 1.6 | 9.7 | 0.00 | 0.00 | 0.00 | 41 | 1014.2 |
| 20260504080849 | 18 | 147 | 1.6 | 6.4 | 0.00 | 0.00 | 0.00 | 45 | 1014.5 |
| 20260504045817 | 9 | 141 | 0.0 | 0.0 | 0.00 | 0.00 | 0.00 | 64 | 1014.2 |
| 20260504044819 | 9 | 141 | 0.0 | 0.0 | 0.00 | 0.00 | 0.00 | 64 | 1014.1 |
| 20260504043744 | 9 | 141 | 0.0 | 0.0 | 0.00 | 0.00 | 0.00 | 63 | 1014.1 |
| 20260504041621 | 10 | 141 | 0.0 | 0.0 | 0.00 | 0.00 | 0.00 | 63 | 1014.1 |
| 20260504040605 | 10 | 141 | 0.0 | 0.0 | 0.00 | 0.00 | 0.00 | 63 | 1014.1 |
| 20260504034502 | 10 | 141 | 0.0 | 0.0 | 0.00 | 0.00 | 0.00 | 61 | 1014.2 |
| 20260504033434 | 10 | 141 | 0.0 | 0.0 | 0.00 | 0.00 | 0.00 | 62 | 1014.2 |
| 20260504032428 | 10 | 141 | 0.0 | 0.0 | 0.00 | 0.00 | 0.00 | 62 | 1014.2 |
| 20260504031406 | 11 | 141 | 0.0 | 0.0 | 0.00 | 0.00 | 0.00 | 61 | 1014.2 |
| 20260504025257 | 11 | 141 | 0.0 | 0.0 | 0.00 | 0.00 | 0.00 | 60 | 1014.1 |
| 20260504024223 | 11 | 141 | 0.0 | 0.0 | 0.00 | 0.00 | 0.00 | 59 | 1014.1 |
| 20260504022023 | 11 | 141 | 0.0 | 0.0 | 0.00 | 0.00 | 0.00 | 58 | 1014.1 |
| 20260504020955 | 12 | 141 | 0.0 | 0.0 | 0.00 | 0.00 | 0.00 | 57 | 1014.2 |
| 20260504015947 | 12 | 141 | 0.0 | 0.0 | 0.00 | 0.00 | 0.00 | 56 | 1014.2 |
| 20260504013910 | 12 | 141 | 0.0 | 0.0 | 0.00 | 0.00 | 0.00 | 56 | 1014.4 |
| 20260504012927 | 12 | 141 | 0.0 | 0.0 | 0.00 | 0.00 | 0.00 | 55 | 1014.3 |
| 20260504011938 | 12 | 141 | 0.0 | 0.0 | 0.00 | 0.00 | 0.00 | 55 | 1014.3 |
| 20260504005800 | 13 | 141 | 0.0 | 0.0 | 0.00 | 0.00 | 0.00 | 53 | 1014.2 |
| 20260504004751 | 13 | 141 | 0.0 | 0.0 | 0.00 | 0.00 | 0.00 | 52 | 1014.3 |
| 20260504003732 | 13 | 141 | 0.0 | 0.0 | 0.00 | 0.00 | 0.00 | 51 | 1014.3 |
| 20260504002733 | 14 | 141 | 0.0 | 0.0 | 0.00 | 0.00 | 0.00 | 51 | 1014.3 |
| 20260504001706 | 14 | 141 | 0.0 | 0.0 | 0.00 | 0.00 | 0.00 | 50 | 1014.4 |
| 20260504000649 | 15 | 141 | 0.0 | 0.0 | 0.00 | 0.00 | 0.00 | 50 | 1014.4 |
| 20260503235631 | 15 | 141 | 0.0 | 0.0 | 0.00 | 0.00 | 0.00 | 50 | 1014.3 |
| 20260503234638 | 15 | 141 | 0.0 | 0.0 | 0.00 | 0.00 | 0.00 | 47 | 1014.4 |
| 20260503233610 | 15 | 141 | 0.0 | 0.0 | 0.00 | 0.00 | 0.00 | 47 | 1014.4 |
| 20260503232629 | 15 | 141 | 0.0 | 0.0 | 0.00 | 0.00 | 0.00 | 46 | 1014.4 |
| 20260503231630 | 16 | 141 | 0.0 | 0.0 | 0.00 | 0.00 | 0.00 | 46 | 1014.4 |
| 20260503230618 | 16 | 141 | 0.0 | 0.0 | 0.00 | 0.00 | 0.00 | 45 | 1014.4 |
| 20260503225614 | 16 | 141 | 0.0 | 0.0 | 0.00 | 0.00 | 0.00 | 46 | 1014.4 |
| 20260503224633 | 16 | 141 | 0.0 | 0.0 | 0.00 | 0.00 | 0.00 | 45 | 1014.4 |
| 20260503223617 | 16 | 141 | 0.0 | 0.0 | 0.00 | 0.00 | 0.00 | 45 | 1014.4 |
| 20260503222558 | 16 | 141 | 0.0 | 0.0 | 0.00 | 0.00 | 0.00 | 45 | 1014.4 |
| 20260503221619 | 16 | 142 | 0.0 | 0.0 | 0.00 | 0.00 | 0.00 | 45 | 1014.5 |
| 20260503220633 | 16 | 141 | 0.0 | 0.0 | 0.00 | 0.00 | 0.00 | 44 | 1014.4 |
| 20260503214458 | 16 | 146 | 0.0 | 1.6 | 0.00 | 0.00 | 0.00 | 43 | 1014.5 |
| 20260503213438 | 16 | 181 | 0.0 | 0.0 | 0.00 | 0.00 | 0.00 | 42 | 1014.4 |
| 20260503212453 | 17 | 182 | 0.0 | 1.6 | 0.00 | 0.00 | 0.00 | 41 | 1014.2 |
| 20260503211441 | 17 | 184 | 0.0 | 3.2 | 0.00 | 0.00 | 0.00 | 42 | 1014.1 |
| 20260503210505 | 17 | 215 | 0.0 | 3.2 | 0.00 | 0.00 | 0.00 | 41 | 1013.9 |
| 20260503204409 | 17 | 180 | 0.0 | 8.0 | 0.00 | 0.00 | 0.00 | 41 | 1013.9 |
| 20260503203342 | 17 | 200 | 0.0 | 4.8 | 0.00 | 0.00 | 0.00 | 41 | 1014.0 |
| 20260503202346 | 17 | 219 | 0.0 | 4.8 | 0.00 | 0.00 | 0.00 | 39 | 1014.0 |
| 20260503201411 | 17 | 209 | 0.0 | 6.4 | 0.00 | 0.00 | 0.00 | 39 | 1013.9 |
| 20260503200338 | 17 | 161 | 0.0 | 6.4 | 0.00 | 0.00 | 0.00 | 38 | 1014.0 |
| 20260503195348 | 17 | 178 | 0.0 | 0.0 | 0.00 | 0.00 | 0.00 | 37 | 1014.0 |
| 20260503194337 | 18 | 174 | 0.0 | 1.6 | 0.00 | 0.00 | 0.00 | 36 | 1013.9 |
| 20260503193350 | 18 | 174 | 0.0 | 1.6 | 0.00 | 0.00 | 0.00 | 34 | 1013.9 |
| 20260503192400 | 18 | 227 | 0.0 | 0.0 | 0.00 | 0.00 | 0.00 | 33 | 1014.1 |
| 20260503191346 | 18 | 221 | 0.0 | 4.8 | 0.00 | 0.00 | 0.00 | 32 | 1014.0 |
| 20260503190401 | 18 | 296 | 0.0 | 4.8 | 0.00 | 0.00 | 0.00 | 30 | 1014.0 |
| 20260503185400 | 18 | 262 | 1.6 | 8.0 | 0.00 | 0.00 | 0.00 | 30 | 1014.0 |
| 20260503184327 | 19 | 215 | 1.6 | 14.5 | 0.00 | 0.00 | 0.00 | 29 | 1014.1 |
| 20260503183306 | 19 | 238 | 6.4 | 14.5 | 0.00 | 0.00 | 0.00 | 28 | 1014.0 |
| 20260503182313 | 19 | 265 | 4.8 | 24.1 | 0.00 | 0.00 | 0.00 | 27 | 1014.0 |
| 20260503181307 | 19 | 229 | 4.8 | 24.1 | 0.00 | 0.00 | 0.00 | 26 | 1013.9 |
| 20260503180243 | 20 | 209 | 1.6 | 14.5 | 0.00 | 0.00 | 0.00 | 27 | 1013.8 |
| 20260503174123 | 20 | 265 | 9.7 | 32.2 | 0.00 | 0.00 | 0.00 | 25 | 1013.7 |
| 20260503173114 | 20 | 275 | 8.0 | 29.0 | 0.00 | 0.00 | 0.00 | 27 | 1013.6 |
| 20260503172126 | 21 | 255 | 12.9 | 29.0 | 0.00 | 0.00 | 0.00 | 26 | 1013.5 |